Regional Weather Roundup
Issued by NWS

Home | Current Version | Previous Version | Graphics & Text | Print | Product List | Glossary On
Versions: 1 2 3 4 5 6 7 8 9 10 11 12 13 14 15 16 17 18 19 20 21 22 23 24 25 26 27 28 29 30 31 32 33 34 35 36 37 38 39 40 41 42 43 44 45 46 47 48 49 50
000
ASUS43 KDMX 221707
RWRIA

WEATHER ROUNDUP FOR IOWA
NATIONAL WEATHER SERVICE DES MOINES IA
1200 PM CDT MON SEP 22 2014

NOTE: "FAIR" INDICATES FEW OR NO CLOUDS BELOW 12,000 FEET WITH NO
SIGNIFICANT WEATHER AND/OR OBSTRUCTIONS TO VISIBILITY.

* - THESE STATIONS ARE NOT NWS STATIONS...THUS NOT UNDER NWS
QUALITY CONTROL.  THEY ALSO DO NOT REPORT WEATHER SUCH
AS PRECIPITATION OR FOG.

IAZ001>003-012>014-020>022-031>034-043>046-221800-
   NORTHWEST IOWA

CITY           SKY/WX    TMP DP  RH WIND       PRES   REMARKS
CARROLL *      SUNNY     68  50  52 SW8       30.30F
CHEROKEE *     SUNNY     66  52  59 S7        30.29F
DENISON *      SUNNY     66  50  55 VRB3      30.29F
LE MARS *      SUNNY     68  52  56 VRB6G13   30.29S
ORANGE CITY *  SUNNY     68  46  45 SW6       30.28F
SHELDON *      SUNNY     66  50  55 VRB7      30.26F
SIOUX CITY     SUNNY     68  51  54 VRB6      30.29F
SPENCER        SUNNY     67  48  50 SW8       30.28F
STORM LAKE *   SUNNY     66  52  59 SW6       30.30F
$$

IAZ055>058-069>071-079>083-090>094-221800-
   SOUTHWEST IOWA

CITY           SKY/WX    TMP DP  RH WIND       PRES   REMARKS
ATLANTIC *     SUNNY     66  52  59 CALM      30.31S
AUDUBON *      SUNNY     66  48  52 SE3       30.32S
CLARINDA *     SUNNY     68  50  52 CALM      30.32F
COUNCIL BLFS * SUNNY     66  52  59 S6        30.30F
CRESTON *      SUNNY     64  50  59 CALM      30.32F
HARLAN  *      SUNNY     66  48  52 CALM      30.34F
LAMONI         SUNNY     66  53  63 VRB3      30.32F
RED OAK *      SUNNY     68  50  52 CALM      30.31F
SHENANDOAH *   SUNNY     68  50  52 CALM      30.32F
$$

IAZ047>049-059>061-072>074-084-221800-
   CENTRAL IOWA

CITY           SKY/WX    TMP DP  RH WIND       PRES   REMARKS
AMES           SUNNY     66  51  58 VRB6      30.30F
ANKENY *       SUNNY     66  52  59 W6        30.31F
CHARITON *     SUNNY     64  50  59 S5        30.32F
DES MOINES     MOSUNNY   67  50  54 CALM      30.31F
GRINNELL*      SUNNY     64  48  55 CALM      30.32F
KNOXVILLE *    SUNNY     64  50  59 SW6       30.31S
MARSHALLTOWN   SUNNY     65  48  54 SW5       30.30F
PELLA *        SUNNY     68  52  56 CALM      30.33F
PERRY *          N/A     68  50  52 S6        30.31F
$$

IAZ004>006-015-016-023>025-035-036-221800-
   NORTH CENTRAL IOWA

CITY           SKY/WX    TMP DP  RH WIND       PRES   REMARKS
ALGONA *       SUNNY     66  50  55 W3        30.30F
CLARION *        N/A     64  50  59 VRB7G14   30.30S
ESTHERVILLE    SUNNY     65  49  56 VRB7      30.28F
FORT DODGE *   SUNNY     66  52  59 SW6       30.31F
MASON CITY     SUNNY     65  52  62 SW8       30.30F
FOREST CITY *  SUNNY     64  50  59 SW3       30.29F
IOWA FALLS *     N/A     66  50  55 W8        30.31F
$$

IAZ007>011-017>019-026>030-037>042-050>054-066-221800-
   NORTHEAST IOWA

CITY           SKY/WX    TMP DP  RH WIND       PRES   REMARKS
CEDAR RAPIDS   SUNNY     64  48  56 VRB5      30.31F
CHARLES CITY * SUNNY     66  50  55 W8        30.30S
CLINTON *      SUNNY     61  43  51 S3        30.35S
DECORAH *      SUNNY     64  48  55 VRB7G14   30.28F
DUBUQUE        SUNNY     62  43  49 SW6       30.31F
MONTICELLO *   SUNNY     64  45  48 VRB7      30.31S
OELWEIN *      SUNNY     64  46  52 SW8       30.31S
WATERLOO       SUNNY     66  47  50 VRB5      30.29F
$$

IAZ064-065-067-068-078-221800-
   EAST CENTRAL IOWA

CITY           SKY/WX    TMP DP  RH WIND       PRES   REMARKS
DAVENPORT      SUNNY     62  40  44 VRB3      30.33S
IOWA CITY      SUNNY     64  48  56 CALM      30.33F
MT. PLEASANT * SUNNY     66  43  42 CALM      30.32F
MUSCATINE *    SUNNY     66  43  42 CALM      30.33S
QUAD CITIES    SUNNY     64  44  48 VRB3      30.32F
$$

IAZ062-063-075>077-085>089-095>099-221800-
   SOUTHEAST IOWA

CITY           SKY/WX    TMP DP  RH WIND       PRES   REMARKS
BURLINGTON     SUNNY     65  46  50 NE3       30.32F
FAIRFIELD *    SUNNY     64  46  52 VRB3      30.32F
FORT MADISON * SUNNY     68  43  40 CALM      30.32F HAZE
KEOKUK *       SUNNY     64  46  52 N7        30.32S
OSKALOOSA *      N/A     64  48  55 CALM      30.32F
CENTERVILLE *  SUNNY     64  50  59 N5        30.34S
OTTUMWA        SUNNY     65  48  54 VRB7      30.31F
WASHINGTON *   SUNNY     66  46  48 CALM      30.32F
$$

ABBREVIATIONS USED IN REMARKS
   TC - TEMPERATURES IN CELSIUS
  WCI - WIND CHILL INDEX
   HX - HEAT INDEX
  VSB - VISIBILITY
$$




USA.gov is the U.S. government's official web portal to all federal, state and local government web resources and services.